DW5570 Weather Reports


time (UTC)temp
F
wind
direction
speed
knots
gust
knots
rain 1hr
in
rain 24hr
in
rain mn
in
humidity
%
barometer
mb
20260509091528 51 269 1.7 6.1 0.00 0.00 0.00 89 1002.9
20260509090028 51 236 0.0 3.5 0.00 0.00 0.00 88 1003.1
20260509084537 51 191 0.9 4.3 0.00 0.00 0.00 88 1003.2
20260509083043 51 0 0.9 5.2 0.00 0.00 0.00 87 1003.4
20260509081530 51 242 0.9 6.1 0.00 0.00 0.00 86 1003.6
20260509080032 51 101 0.9 4.3 0.00 0.00 0.00 85 1003.7
20260509074528 50 0 0.9 2.6 0.00 0.00 0.00 84 1003.7
20260509073030 51 0 0.0 7.0 0.00 0.00 0.00 82 1004.0
20260509071531 51 0 0.0 2.6 0.00 0.00 0.00 80 1004.4
20260509070029 51 165 0.0 2.6 0.00 0.00 0.00 78 1004.7
20260509064528 51 0 0.0 0.9 0.00 0.00 0.00 72 1004.5
20260509063027 51 258 0.0 1.7 0.00 0.00 0.00 66 1004.7
20260509061528 51 0 0.0 3.5 0.00 0.00 0.00 57 1005.0
20260509060028 51 214 0.0 3.5 0.00 0.00 0.00 51 1004.9
20260509054529 51 0 0.9 6.1 0.00 0.00 0.00 47 1005.1
20260509053039 51 105 0.0 4.3 0.00 0.00 0.00 46 1005.3
20260509051530 51 201 0.0 7.0 0.00 0.00 0.00 45 1005.1
20260509050031 52 0 0.0 2.6 0.00 0.00 0.00 44 1005.0
20260509044530 51 143 1.7 7.8 0.00 0.00 0.00 43 1005.3
20260509043029 51 208 0.9 4.3 0.00 0.00 0.00 45 1005.3
20260509041539 50 232 0.0 1.7 0.00 0.00 0.00 47 1005.5
20260509040029 49 0 0.0 0.0 0.00 0.00 0.00 48 1005.7
20260509034529 49 0 0.0 0.0 0.00 0.00 0.00 49 1005.8
20260509033031 49 0 0.0 0.9 0.00 0.00 0.00 49 1006.0
20260509031531 49 0 0.0 0.0 0.00 0.00 0.00 47 1006.1
20260509030028 49 0 0.0 0.0 0.00 0.00 0.00 46 1006.3
20260509024529 49 0 0.0 0.0 0.00 0.00 0.00 41 1006.5
20260509023029 50 0 0.0 0.9 0.00 0.00 0.00 42 1006.7
20260509021530 50 0 0.0 0.0 0.00 0.00 0.00 43 1006.6
20260509020027 50 0 0.0 0.0 0.00 0.00 0.00 42 1006.6
20260509014530 50 0 0.0 0.0 0.00 0.00 0.00 41 1006.5
20260509013036 52 0 0.0 0.0 0.00 0.00 0.00 39 1006.5
20260509011534 52 0 0.0 0.0 0.00 0.00 0.00 36 1006.4
20260509010042 54 0 0.0 0.0 0.00 0.00 0.00 34 1006.5
20260509004529 56 0 0.0 0.0 0.00 0.00 0.00 32 1006.5
20260509003028 58 0 0.0 0.9 0.00 0.00 0.00 30 1006.6
20260509001531 60 0 0.0 0.9 0.00 0.00 0.00 28 1006.6
20260509000027 62 0 0.0 0.9 0.00 0.00 0.00 26 1006.8
20260508234528 64 163 0.9 2.6 0.00 0.00 0.00 25 1006.9
20260508233029 63 0 0.0 3.5 0.00 0.00 0.00 26 1007.1
20260508231528 63 291 0.9 2.6 0.00 0.00 0.00 27 1007.2
20260508230037 64 0 0.9 3.5 0.00 0.00 0.00 29 1007.3
20260508224537 65 303 1.7 5.2 0.00 0.00 0.00 28 1007.3
20260508223027 65 285 0.9 4.3 0.00 0.00 0.00 27 1007.3
20260508221541 65 293 0.9 4.3 0.00 0.00 0.00 29 1007.5
20260508220030 65 281 0.9 3.5 0.00 0.00 0.00 27 1007.5
20260508214530 65 335 0.9 4.3 0.00 0.00 0.00 29 1007.5
20260508213029 65 156 0.9 4.3 0.00 0.00 0.00 28 1007.5
20260508211529 64 231 0.0 6.1 0.00 0.00 0.00 29 1007.7
20260508210027 64 283 1.7 6.1 0.00 0.00 0.00 28 1007.8
20260508204530 64 338 2.6 7.0 0.00 0.00 0.00 32 1007.9
20260508203028 64 224 1.7 5.2 0.00 0.00 0.00 29 1008.1
20260508201528 64 231 1.7 7.8 0.00 0.00 0.00 30 1008.3
20260508200036 64 293 1.7 4.3 0.00 0.00 0.00 31 1008.5
20260508194527 63 265 1.7 5.2 0.00 0.00 0.00 33 1008.5
20260508193028 63 287 1.7 5.2 0.00 0.00 0.00 30 1008.7
20260508191530 62 303 2.6 7.8 0.00 0.00 0.00 31 1008.8
20260508190036 64 141 1.7 10.4 0.00 0.00 0.00 32 1008.6
20260508184534 64 242 1.7 7.0 0.00 0.00 0.00 32 1008.9
20260508183029 64 127 1.7 5.2 0.00 0.00 0.00 30 1009.2
20260508181528 64 134 1.7 4.3 0.00 0.00 0.00 29 1009.2
20260508180030 63 336 0.9 7.0 0.00 0.00 0.00 32 1009.5
20260508174537 64 278 1.7 7.0 0.00 0.00 0.00 30 1009.7
20260508173028 63 262 2.6 6.1 0.00 0.00 0.00 30 1010.0
20260508171532 62 328 1.7 5.2 0.00 0.00 0.00 33 1010.1
20260508170028 62 326 1.7 4.3 0.00 0.00 0.00 30 1010.3
20260508164535 61 353 0.9 6.1 0.00 0.00 0.00 35 1010.6
20260508163028 61 203 2.6 5.2 0.00 0.00 0.00 35 1010.8
20260508161530 62 176 0.9 6.1 0.00 0.00 0.00 36 1010.8
20260508160033 60 64 1.7 4.3 0.00 0.00 0.00 37 1010.8
20260508154532 60 298 1.7 3.5 0.00 0.00 0.00 38 1010.8
20260508153029 60 253 2.6 5.2 0.00 0.00 0.00 44 1010.9
20260508151531 58 128 0.9 5.2 0.00 0.00 0.00 47 1011.0
20260508150027 59 143 0.9 6.1 0.00 0.00 0.00 51 1011.2
20260508144528 58 342 0.9 3.5 0.00 0.00 0.00 50 1011.2
20260508143030 57 110 0.9 3.5 0.00 0.00 0.00 60 1011.2
20260508141529 57 191 0.9 6.1 0.00 0.00 0.00 64 1011.2
20260508140028 56 309 0.0 2.6 0.00 0.00 0.00 68 1011.3
20260508134529 55 277 0.9 3.5 0.00 0.00 0.00 68 1011.3
20260508133031 55 190 0.9 3.5 0.00 0.00 0.00 67 1011.3
20260508131528 54 0 0.9 3.5 0.00 0.00 0.00 71 1011.6
20260508130035 50 0 0.0 0.0 0.00 0.00 0.00 79 1011.6
20260508124527 46 0 0.0 0.0 0.00 0.00 0.00 82 1011.7
20260508123030 44 0 0.0 0.9 0.00 0.00 0.00 85 1011.9
20260508121530 41 0 0.0 0.0 0.00 0.00 0.00 87 1011.7
20260508120029 39 0 0.0 0.0 0.00 0.00 0.00 90 1011.3
20260508114528 39 0 0.0 0.0 0.00 0.00 0.00 90 1011.3
20260508113028 38 0 0.0 0.0 0.00 0.00 0.00 92 1011.1
20260508111529 35 0 0.0 0.0 0.00 0.00 0.00 94 1011.0
20260508110027 33 0 0.0 0.0 0.00 0.00 0.00 94 1011.1
20260508104541 32 0 0.0 0.0 0.00 0.00 0.00 94 1011.0
20260508103037 33 0 0.0 0.0 0.00 0.00 0.00 93 1010.9
20260508101530 33 0 0.0 0.0 0.00 0.00 0.00 93 1010.9
20260508100028 33 0 0.0 0.0 0.00 0.00 0.00 93 1011.1
20260508094529 34 0 0.0 0.0 0.00 0.00 0.00 92 1011.0
20260508093028 34 0 0.0 0.0 0.00 0.00 0.00 93 1011.2